DW8700 Weather Reports


time (UTC)temp
C
wind
direction
speed
KPH
gust
KPH
rain 1hr
cm
rain 24hr
cm
rain mn
cm
humidity
%
barometer
mb
20260503194014 16 115 0.0 0.0 0.00 0.03 0.03 77 1013.1
20260503193514 16 173 0.0 0.0 0.00 0.03 0.03 77 1013.1
20260503193015 16 109 0.0 0.0 0.00 0.03 0.03 76 1013.1
20260503192517 16 104 0.0 0.0 0.00 0.03 0.03 78 1013.1
20260503192014 16 219 0.0 0.0 0.00 0.03 0.03 76 1013.0
20260503191513 16 188 0.0 0.0 0.00 0.03 0.03 76 1013.0
20260503191016 16 188 0.0 0.0 0.00 0.03 0.03 75 1013.1
20260503190512 16 90 0.0 0.0 0.00 0.03 0.03 73 1013.0
20260503190013 16 101 0.0 0.0 0.00 0.03 0.03 70 1013.0
20260503185516 16 168 0.0 0.0 0.00 0.03 0.03 68 1012.9
20260503185011 16 257 0.0 0.0 0.00 0.03 0.03 68 1012.9
20260503184510 16 275 0.0 0.0 0.00 0.03 0.03 69 1013.0
20260503184013 16 92 0.0 0.0 0.00 0.03 0.03 69 1012.9
20260503183508 15 192 0.0 0.0 0.00 0.03 0.03 74 1013.0
20260503183006 15 105 0.0 0.0 0.00 0.03 0.03 77 1013.0
20260503182509 15 104 0.0 0.0 0.00 0.03 0.03 75 1012.9
20260503182005 15 52 0.0 0.0 0.00 0.03 0.03 77 1013.0
20260503181506 15 99 0.0 0.0 0.00 0.03 0.03 77 1012.9
20260503181004 15 95 0.0 0.0 0.00 0.03 0.03 77 1013.0
20260503180503 14 96 0.0 0.0 0.00 0.03 0.03 77 1013.0
20260503180007 14 100 0.0 0.0 0.00 0.03 0.03 78 1013.0
20260503175501 14 121 0.0 0.0 0.00 0.03 0.03 78 1013.1
20260503175001 13 227 0.0 0.0 0.00 0.03 0.03 77 1013.1
20260503174503 13 219 0.0 0.0 0.00 0.03 0.03 78 1013.1
20260503174001 14 219 0.0 0.0 0.00 0.03 0.03 77 1013.1
20260503173601 14 219 0.0 0.0 0.00 0.03 0.03 75 1013.1
20260503173131 14 205 0.0 0.0 0.00 0.03 0.03 77 1012.9
20260503172559 14 299 0.0 0.0 0.00 0.03 0.03 76 1012.9
20260503172102 14 253 0.0 0.0 0.00 0.03 0.03 80 1012.9
20260503171556 13 293 0.0 0.0 0.00 0.03 0.03 81 1012.9
20260503171055 13 282 0.0 0.0 0.00 0.03 0.03 83 1012.9
20260503170554 13 282 0.0 0.0 0.00 0.03 0.03 83 1013.0
20260503150539 11 242 0.0 0.0 0.00 0.00 0.00 94 1012.5
20260503131025 11 198 0.0 0.0 0.00 0.00 0.00 95 1011.2
20260503130525 11 198 0.0 0.0 0.00 0.00 0.00 95 1011.1
20260503120121 11 198 0.0 0.0 0.00 0.03 0.00 94 1010.7
20260503110521 11 198 0.0 0.0 0.00 0.03 0.00 93 1011.0
20260503090511 11 180 0.0 0.0 0.00 0.03 0.00 91 1011.1
20260503081503 12 180 0.0 0.0 0.00 0.03 0.00 89 1011.4
20260503081004 12 180 0.0 0.0 0.00 0.03 0.00 88 1011.4
20260503080503 12 180 0.0 0.0 0.00 0.03 0.00 88 1011.5
20260503072501 12 180 0.0 0.0 0.00 0.03 0.00 88 1011.5
20260503072101 12 180 0.0 0.0 0.00 0.03 0.00 88 1011.4
20260503071615 12 180 0.0 0.0 0.00 0.03 0.00 87 1011.4
20260503071059 12 180 0.0 0.0 0.00 0.03 0.00 88 1011.5
20260503070559 12 180 0.0 0.0 0.00 0.03 0.00 88 1011.4
20260503070114 12 180 0.0 0.0 0.00 0.03 0.00 87 1011.5
20260503060120 12 180 0.0 0.0 0.00 0.03 0.03 87 1011.5
20260503055057 12 180 0.0 0.0 0.00 0.03 0.03 86 1011.5
20260503054600 12 180 0.0 0.0 0.00 0.03 0.03 86 1011.6
20260503054056 12 180 0.0 0.0 0.00 0.03 0.03 86 1011.6
20260503053556 12 180 0.0 0.0 0.00 0.03 0.03 86 1011.7
20260503053057 12 180 0.0 0.0 0.00 0.03 0.03 86 1011.7
20260503052557 12 180 0.0 0.0 0.00 0.03 0.03 86 1011.8
20260503052057 12 180 0.0 0.0 0.00 0.03 0.03 86 1011.7
20260503051556 12 180 0.0 0.0 0.00 0.03 0.03 86 1011.7
20260503051056 12 180 0.0 0.0 0.00 0.03 0.03 86 1011.7
20260503050558 12 180 0.0 0.0 0.00 0.03 0.03 86 1011.7
20260503045557 12 81 0.0 0.0 0.00 0.03 0.03 86 1011.8
20260503045054 12 77 0.0 0.0 0.00 0.03 0.03 87 1011.7
20260503044555 12 73 0.0 0.0 0.00 0.03 0.03 86 1011.7
20260503044055 13 73 0.0 0.0 0.00 0.03 0.03 86 1011.6
20260503043554 13 67 0.0 0.0 0.00 0.03 0.03 87 1011.5
20260503043057 13 67 0.0 0.0 0.00 0.03 0.03 87 1011.5
20260503042554 13 67 0.0 0.0 0.00 0.03 0.03 87 1011.4
20260503042055 13 67 0.0 0.0 0.00 0.03 0.03 87 1011.4
20260503041554 13 67 0.0 0.0 0.00 0.03 0.03 87 1011.4
20260503041057 13 67 0.0 0.0 0.00 0.03 0.03 87 1011.3
20260503040553 13 67 0.0 0.0 0.00 0.03 0.03 87 1011.2
20260503040055 13 192 0.0 0.0 0.00 0.03 0.03 87 1011.1
20260503035553 13 192 0.0 0.0 0.00 0.03 0.03 87 1011.0
20260503035056 13 192 0.0 0.0 0.00 0.03 0.03 87 1010.9
20260503034556 13 192 0.0 0.0 0.00 0.03 0.03 87 1010.9
20260503034052 13 192 0.0 0.0 0.00 0.03 0.03 86 1010.8
20260503033553 13 192 0.0 0.0 0.00 0.03 0.03 86 1010.8
20260503033059 13 192 0.0 0.0 0.00 0.03 0.03 86 1010.7
20260503032553 13 192 0.0 0.0 0.00 0.03 0.03 86 1010.7
20260503032055 13 192 0.0 0.0 0.00 0.03 0.03 86 1010.7
20260503031552 13 192 0.0 0.0 0.00 0.03 0.03 85 1010.6
20260503031052 13 192 0.0 0.0 0.00 0.03 0.03 84 1010.6
20260503030552 13 192 0.0 0.0 0.00 0.03 0.03 84 1010.6
20260503030051 13 192 0.0 0.0 0.00 0.03 0.03 83 1010.5
20260503025552 13 192 0.0 0.0 0.00 0.03 0.03 83 1010.5
20260503025055 13 192 0.0 0.0 0.00 0.03 0.03 82 1010.5
20260503024553 13 192 0.0 0.0 0.00 0.03 0.03 82 1010.5
20260503024051 14 192 0.0 0.0 0.00 0.03 0.03 82 1010.4
20260503023552 14 192 0.0 0.0 0.00 0.03 0.03 81 1010.4
20260503023052 14 192 0.0 0.0 0.00 0.03 0.03 82 1010.4
20260503022551 14 192 0.0 0.0 0.00 0.03 0.03 81 1010.4
20260503022055 14 192 0.0 0.0 0.00 0.03 0.03 81 1010.4
20260503021553 15 192 0.0 0.0 0.00 0.03 0.03 81 1010.3
20260503021050 15 196 0.0 0.0 0.00 0.03 0.03 80 1010.2
20260503020550 15 115 0.0 0.0 0.00 0.03 0.03 79 1010.3
20260503020049 15 121 0.0 0.0 0.00 0.03 0.03 79 1010.3
20260503015549 15 190 0.0 0.0 0.00 0.03 0.03 79 1010.3
20260503015051 15 190 0.0 0.0 0.00 0.03 0.03 79 1010.3
20260503014602 15 225 0.0 0.0 0.00 0.03 0.03 78 1010.3
20260503014049 15 205 0.0 0.0 0.00 0.03 0.03 77 1010.3
20260503013549 16 207 0.0 0.0 0.00 0.03 0.03 76 1010.4
20260503013049 16 211 0.0 0.0 0.00 0.03 0.03 75 1010.4
20260503012548 16 202 0.0 0.0 0.00 0.03 0.03 75 1010.4
20260503012047 16 198 0.0 0.0 0.00 0.03 0.03 74 1010.5
20260503011601 17 200 0.0 0.0 0.00 0.03 0.03 73 1010.4
20260503011047 17 217 0.0 0.0 0.00 0.03 0.03 72 1010.4
20260503010548 17 196 0.0 0.0 0.00 0.03 0.03 71 1010.4
20260503010047 17 205 0.0 0.0 0.00 0.03 0.03 70 1010.4
20260503005547 18 175 0.0 0.0 0.00 0.03 0.03 69 1010.4
20260503005047 18 163 0.0 0.0 0.00 0.03 0.03 70 1010.4
20260503004547 18 138 0.0 0.0 0.00 0.03 0.03 68 1010.4
20260503004047 18 150 0.0 0.0 0.00 0.03 0.03 69 1010.4
20260503003549 18 189 0.0 0.0 0.00 0.03 0.03 69 1010.4
20260503003050 18 144 0.0 0.0 0.00 0.03 0.03 67 1010.4
20260503002546 19 188 0.0 0.0 0.00 0.03 0.03 67 1010.4
20260503002045 19 183 0.0 0.0 0.00 0.03 0.03 67 1010.5
20260503001545 19 177 0.0 0.0 0.00 0.03 0.03 67 1010.5
20260503001045 19 151 0.0 0.0 0.00 0.03 0.03 66 1010.5
20260503000545 19 175 0.0 0.0 0.00 0.03 0.03 65 1010.5
20260503000045 19 177 0.0 0.0 0.00 0.03 0.03 66 1010.5
20260502235543 19 196 0.0 0.0 0.00 0.03 0.03 68 1010.6
20260502235042 19 181 0.0 0.0 0.00 0.03 0.03 68 1010.7
20260502234606 19 132 0.0 0.0 0.00 0.03 0.03 68 1010.8
20260502234041 19 195 0.0 0.0 0.00 0.03 0.03 69 1010.7
20260502233541 19 185 0.0 0.0 0.00 0.03 0.03 69 1010.8
20260502233041 19 182 0.0 0.0 0.00 0.03 0.03 68 1010.8
20260502232539 19 70 0.0 0.0 0.00 0.03 0.03 68 1010.8
20260502232038 19 152 0.0 0.0 0.00 0.03 0.03 68 1010.9
20260502231537 18 238 0.0 0.0 0.00 0.03 0.03 70 1011.0
20260502231037 18 242 0.0 0.0 0.00 0.03 0.03 68 1011.1
20260502230536 18 191 0.0 0.0 0.00 0.03 0.03 71 1011.1
20260502230034 18 182 0.0 0.0 0.00 0.03 0.03 69 1011.2
20260502225537 18 195 0.0 0.0 0.00 0.03 0.03 70 1011.4
20260502225032 18 85 0.0 0.0 0.00 0.03 0.03 71 1011.5
20260502224532 18 184 0.0 0.0 0.00 0.03 0.03 72 1011.5
20260502224033 18 196 0.0 0.0 0.00 0.03 0.03 72 1011.6
20260502223531 18 182 0.0 0.0 0.00 0.03 0.03 72 1011.7
20260502223031 18 186 0.0 0.0 0.00 0.03 0.03 72 1011.8
20260502222529 18 175 0.0 0.0 0.00 0.03 0.03 74 1011.9
20260502222029 18 241 0.0 0.0 0.00 0.03 0.03 71 1012.0
20260502221527 18 214 0.0 0.0 0.00 0.03 0.03 73 1012.1
20260502221027 18 215 0.0 0.0 0.00 0.03 0.03 72 1012.2
20260502220526 18 217 0.0 0.0 0.00 0.03 0.03 73 1012.4
20260502220025 17 166 0.0 0.0 0.00 0.03 0.03 75 1012.5
20260502215525 17 166 0.0 0.0 0.00 0.03 0.03 74 1012.6
20260502215025 17 88 0.0 0.0 0.00 0.03 0.03 74 1012.6
20260502214524 17 105 0.0 0.0 0.00 0.03 0.03 73 1012.7
20260502214028 17 175 0.0 0.0 0.00 0.03 0.03 72 1012.8
20260502213525 17 212 0.0 0.0 0.00 0.03 0.03 73 1012.8
20260502213035 17 214 0.0 0.0 0.00 0.03 0.03 73 1012.8
20260502212524 17 215 0.0 0.0 0.00 0.03 0.03 74 1012.7
20260502212022 17 193 0.0 0.0 0.00 0.03 0.03 76 1012.7
20260502211522 17 192 0.0 0.0 0.00 0.03 0.03 80 1012.7
20260502211019 16 313 0.0 0.0 0.00 0.03 0.03 81 1012.7
20260502210521 16 214 0.0 0.0 0.00 0.03 0.03 79 1012.8
20260502210017 16 188 0.0 0.0 0.00 0.03 0.03 81 1012.9
20260502205517 15 188 0.0 0.0 0.00 0.03 0.03 81 1013.0
20260502205017 15 183 0.0 0.0 0.00 0.03 0.03 81 1013.1
20260502204516 15 183 0.0 0.0 0.00 0.03 0.03 81 1013.1
20260502204019 15 153 0.0 0.0 0.00 0.03 0.03 82 1013.3
20260502203515 15 187 0.0 0.0 0.00 0.03 0.03 81 1013.5
20260502203015 15 187 0.0 0.0 0.00 0.03 0.03 82 1013.4
20260502202515 15 188 0.0 0.0 0.00 0.03 0.03 81 1013.5
20260502202014 15 188 0.0 0.0 0.00 0.03 0.03 81 1013.6
20260502201525 15 182 0.0 0.0 0.00 0.03 0.03 83 1013.6
20260502201013 15 187 0.0 0.0 0.00 0.03 0.03 83 1013.7
20260502200516 15 184 0.0 0.0 0.00 0.03 0.03 83 1013.8
20260502200012 15 221 0.0 0.0 0.00 0.03 0.03 83 1013.9
20260502195512 15 221 0.0 0.0 0.00 0.03 0.03 85 1014.0
20260502195011 15 221 0.0 0.0 0.00 0.03 0.03 85 1014.0
20260502194509 15 195 0.0 0.0 0.00 0.03 0.03 85 1014.0